This is the latest recevied weather packets stored in our database for station/object KB3KAV. If no packets are shown the sender has not sent any weather packets the latest 10 day(s).
| Time | Temp. | Humidity | Pressure | Rain* | Wind** | Luminosity | Snow |
|---|---|---|---|---|---|---|---|
| 1787542010 | 12.78° C | 95% | 1042 hPa | 0 mm | - | 0 W/m² | - |
| 1787541409 | 12.78° C | 95% | 1041.9 hPa | 0 mm | - | 0 W/m² | - |
| 1787540807 | 13.33° C | 95% | 1042.3 hPa | 0 mm | - | 0 W/m² | - |
| 1787540206 | 13.33° C | 95% | 1042.2 hPa | 0 mm | - | 0 W/m² | - |
| 1787539604 | 13.33° C | 95% | 1042.3 hPa | 0 mm | - | 0 W/m² | - |
| 1787538998 | 13.33° C | 95% | 1042.3 hPa | 0 mm | - | 0 W/m² | - |
| 1787538397 | 13.33° C | 95% | 1042 hPa | 0 mm | - | 0 W/m² | - |
| 1787537795 | 13.89° C | 95% | 1042.1 hPa | 0 mm | - | 0 W/m² | - |
| 1787537192 | 13.89° C | 95% | 1042 hPa | 0 mm | - | 0 W/m² | - |
| 1787536592 | 13.89° C | 95% | 1042.2 hPa | 0 mm | - | 0 W/m² | - |
| 1787535990 | 13.89° C | 95% | 1042.3 hPa | 0 mm | - | 0 W/m² | - |
| 1787535386 | 14.44° C | 95% | 1042.1 hPa | 0 mm | - | 0 W/m² | - |
| 1787534786 | 14.44° C | 95% | 1042.2 hPa | 0 mm | - | 0 W/m² | - |
| 1787534185 | 14.44° C | 95% | 1042 hPa | 0 mm | - | 0 W/m² | - |
| 1787533584 | 14.44° C | 95% | 1042.2 hPa | 0 mm | - | 0 W/m² | - |
| 1787532980 | 15° C | 95% | 1041.9 hPa | 0 mm | - | 0 W/m² | - |
| 1787532376 | 15° C | 95% | 1041.6 hPa | 0 mm | - | 0 W/m² | - |
| 1787531774 | 15° C | 95% | 1041.5 hPa | 0 mm | - | 0 W/m² | - |
| 1787531171 | 15.56° C | 95% | 1041.2 hPa | 0 mm | - | 0 W/m² | - |
| 1787530567 | 15.56° C | 95% | 1041.3 hPa | 0 mm | - | 0 W/m² | - |
| 1787529964 | 15.56° C | 95% | 1040.9 hPa | 0 mm | - | 0 W/m² | - |
| 1787529360 | 16.11° C | 95% | 1040.8 hPa | 0 mm | - | 0 W/m² | - |
| 1787528756 | 16.67° C | 95% | 1040.7 hPa | 0 mm | - | 3 W/m² | - |
| 1787528153 | 16.67° C | 95% | 1040.5 hPa | 0 mm | - | 6 W/m² | - |
| 1787527550 | 17.22° C | 94% | 1040.6 hPa | 0 mm | - | 12 W/m² | - |
* Rain latest hour (hover to see other rain measurements)
** Current wind speed in m/s (hover to see current wind gust speed)